Location: Unspecified
(0.0000°N, 0.0000°E)
Time: 08:28:24
(UTC+00:00)

deb Explorer IX - All Passes

Search period start: 21 January 2017 00:00
Search period end: 31 January 2017 00:00
Orbit: 546 x 1124 km, 38.8° (Epoch: 20 January)

Date Brightness Start Highest point End Pass type
(mag) Time Alt. Az. Time Alt. Az. Time Alt. Az.
21 Jan - 04:48:43 10° S 04:52:41 15° SE 04:56:39 10° ESE visible
21 Jan - 06:33:18 10° SW 06:40:44 69° SE 06:47:48 10° ENE daylight
21 Jan - 08:22:32 10° W 08:28:22 26° NW 08:33:50 10° NNE daylight
21 Jan - 17:34:21 10° N 17:37:01 17° NE 17:39:43 10° E daylight
21 Jan - 19:20:04 10° WNW 19:23:54 39° SW 19:28:01 10° SSE visible
22 Jan - 04:29:18 10° S 04:33:33 16° SE 04:37:50 10° ESE visible
22 Jan - 06:14:06 10° SW 06:21:32 74° SE 06:28:44 10° NE daylight
22 Jan - 08:03:28 10° W 08:09:12 24° NW 08:14:38 10° N daylight
22 Jan - 17:15:09 10° N 17:18:04 19° NE 17:20:58 10° E daylight
22 Jan - 19:01:14 10° WNW 19:04:57 34° SW 19:08:53 10° SSE visible
23 Jan - 04:09:55 10° S 04:14:24 17° SE 04:18:58 10° ESE visible
23 Jan - 05:54:54 10° SW 06:02:19 79° SE 06:09:36 10° NE daylight
23 Jan - 07:44:26 10° W 07:50:02 23° NW 07:55:24 10° N daylight
23 Jan - 16:55:56 10° N 16:59:06 21° NE 17:02:12 10° E daylight
23 Jan - 18:42:23 10° WNW 18:45:59 30° SW 18:49:45 10° SSE visible
24 Jan - 03:50:35 10° S 03:55:15 18° SE 04:00:02 10° E visible
24 Jan - 05:35:43 10° SW 05:43:05 83° SE 05:50:27 10° NE visible
24 Jan - 07:25:25 10° W 07:30:52 22° NW 07:36:08 10° N daylight
24 Jan - 16:36:44 10° NNW 16:40:08 23° NE 16:43:25 10° E daylight
24 Jan - 18:23:32 10° W 18:27:02 27° SW 18:30:36 10° SSE daylight
25 Jan - 03:31:17 10° S 03:36:05 19° SE 03:41:03 10° E visible
25 Jan - 05:16:32 10° SW 05:23:51 88° SE 05:31:17 10° NE visible
25 Jan - 07:06:26 10° W 07:11:41 21° NW 07:16:49 10° N daylight
25 Jan - 16:17:32 10° NNW 16:21:10 26° NE 16:24:37 10° E daylight
25 Jan - 18:04:41 10° W 18:08:04 24° SW 18:11:27 10° SSE daylight
26 Jan - 03:12:00 10° S 03:16:54 20° SE 03:22:02 10° E visible
26 Jan - 04:57:23 10° SW 05:04:37 87° NW 05:12:04 10° NE visible
26 Jan - 06:47:28 10° W 06:52:30 19° NW 06:57:29 10° N daylight
26 Jan - 15:58:20 10° NNW 16:02:11 29° NE 16:05:48 10° E daylight
26 Jan - 17:45:50 10° W 17:49:04 22° SW 17:52:18 10° SSE daylight
27 Jan - 02:52:44 10° S 02:57:43 21° SE 03:02:59 10° E visible
27 Jan - 04:38:15 10° SW 04:45:22 82° NW 04:52:50 10° NE visible
27 Jan - 06:28:32 10° WNW 06:33:19 18° NW 06:38:05 10° N daylight
27 Jan - 15:39:06 10° NNW 15:43:12 33° NE 15:46:57 10° ESE daylight
27 Jan - 17:26:58 10° W 17:30:05 20° SW 17:33:08 10° S daylight
28 Jan - 02:33:31 10° S 02:38:32 22° SE 02:43:55 10° E visible
28 Jan - 04:19:08 10° SW 04:26:07 77° NW 04:33:35 10° NE visible
28 Jan - 06:09:38 10° WNW 06:14:08 17° NW 06:18:39 10° N daylight
28 Jan - 15:19:53 10° NNW 15:24:12 37° NE 15:28:06 10° ESE daylight
28 Jan - 17:08:06 10° W 17:11:05 18° SW 17:13:57 10° S daylight
29 Jan - 02:14:18 10° S 02:19:20 23° SE 02:24:48 10° E visible
29 Jan - 04:00:02 10° SW 04:06:53 72° NW 04:14:17 10° NE visible
29 Jan - 05:50:48 10° WNW 05:54:57 16° NW 05:59:09 10° N visible
29 Jan - 15:00:38 10° NNW 15:05:11 42° NE 15:09:14 10° ESE daylight
29 Jan - 16:49:14 10° W 16:52:03 17° SW 16:54:47 10° S daylight
30 Jan - 01:55:07 10° S 02:00:09 25° SE 02:05:40 10° E night (unlit)
30 Jan - 03:40:57 10° WSW 03:47:38 67° NW 03:54:59 10° NE visible
30 Jan - 05:32:00 10° WNW 05:35:46 15° NW 05:39:36 10° N visible
30 Jan - 14:41:23 10° NW 14:46:09 48° NE 14:50:22 10° ESE daylight
30 Jan - 16:30:22 10° W 16:33:01 16° SW 16:35:35 10° S daylight
